Location: Wayah Bald
(35.1806°N, 83.5603°W)
Time: 01:55:41
(UTC-04:00)

Meteor 1-27 Rocket - Visible Passes

Search period start: 02 May 2016 00:00
Search period end: 12 May 2016 00:00
Orbit: 830 x 910 km, 81.3° (Epoch: 30 April)

Date Brightness Start Highest point End Pass type
(mag) Time Alt. Az. Time Alt. Az. Time Alt. Az.
02 May 5.5 20:44:53 10° E 20:46:24 11° E 20:47:55 10° ENE visible
02 May 3.8 22:24:50 18° SSW 22:28:59 71° W 22:34:30 10° N visible
03 May 3.9 22:17:19 10° SSW 22:22:48 68° W 22:28:18 10° N visible
04 May 4.0 22:11:09 10° SSW 22:16:36 66° W 22:22:06 10° N visible
05 May 4.1 22:04:58 10° SSW 22:10:26 64° W 22:15:55 10° N visible
06 May 4.1 21:58:49 10° SSW 22:04:14 62° W 22:09:43 10° N visible
07 May 4.2 21:52:39 10° SSW 21:58:04 59° W 22:03:32 10° N visible
08 May 4.3 21:46:29 10° SSW 21:51:53 57° W 21:57:20 10° N visible
09 May 4.4 21:40:19 10° SSW 21:45:42 55° W 21:51:08 10° N visible
10 May 4.5 21:34:10 10° SSW 21:39:31 53° W 21:44:56 10° N visible
11 May 4.6 21:27:59 10° SSW 21:33:20 51° WNW 21:38:44 10° N visible
